TimeCDT,TemperatureF,Dew PointF,Humidity,Sea Level PressureIn,VisibilityMPH,Wind Direction,Wind SpeedMPH,Gust SpeedMPH,PrecipitationIn,Events,Conditions,WindDirDegrees,DateUTC
12:15 AM,61.7,61.7,100,30.20,0.5,Calm,Calm,-,N/A,Fog,Fog,0,2012-10-13 05:15:00
12:35 AM,60.8,60.8,100,30.20,2.5,Calm,Calm,-,N/A,,Mostly Cloudy,0,2012-10-13 05:35:00
1:35 AM,59.0,59.0,100,30.19,0.2,Calm,Calm,-,N/A,Fog,Fog,0,2012-10-13 06:35:00
1:55 AM,58.8,58.8,100,30.19,0.5,Calm,Calm,-,N/A,Fog,Fog,0,2012-10-13 06:55:00
2:15 AM,58.3,58.3,100,30.20,0.2,Calm,Calm,-,N/A,Fog,Fog,0,2012-10-13 07:15:00
2:35 AM,58.1,58.1,100,30.20,0.5,Calm,Calm,-,N/A,Fog,Fog,0,2012-10-13 07:35:00
3:35 AM,57.9,57.9,100,30.20,0.2,Calm,Calm,-,N/A,Fog,Fog,0,2012-10-13 08:35:00
4:15 AM,58.5,58.5,100,30.20,0.8,Calm,Calm,-,N/A,,Overcast,0,2012-10-13 09:15:00
4:35 AM,59.4,59.4,100,30.20,1.0,Calm,Calm,-,N/A,,Overcast,0,2012-10-13 09:35:00
5:15 AM,59.9,59.9,100,30.20,0.2,North,3.5,-,N/A,Fog,Fog,360,2012-10-13 10:15:00
5:55 AM,59.9,59.9,100,30.21,0.2,Calm,Calm,-,N/A,Fog,Fog,0,2012-10-13 10:55:00
6:35 AM,60.4,60.4,100,30.22,0.2,Calm,Calm,-,N/A,Fog,Fog,0,2012-10-13 11:35:00
6:55 AM,60.4,60.4,100,30.23,0.2,Calm,Calm,-,N/A,Fog,Fog,0,2012-10-13 11:55:00
7:15 AM,60.1,60.1,100,30.23,0.2,Calm,Calm,-,N/A,Fog,Fog,0,2012-10-13 12:15:00
7:35 AM,60.3,60.3,100,30.23,0.2,Calm,Calm,-,N/A,Fog,Fog,0,2012-10-13 12:35:00
8:55 AM,62.6,62.6,100,30.25,0.2,Calm,Calm,-,N/A,Fog,Fog,0,2012-10-13 13:55:00
9:15 AM,63.5,63.5,100,30.25,0.2,Calm,Calm,-,N/A,Fog,Fog,0,2012-10-13 14:15:00
9:35 AM,65.3,65.3,100,30.26,0.2,Calm,Calm,-,N/A,Fog,Fog,0,2012-10-13 14:35:00
9:55 AM,66.2,66.2,100,30.26,1.0,Calm,Calm,-,N/A,,Overcast,0,2012-10-13 14:55:00
10:15 AM,68.5,68.5,100,30.25,10.0,Calm,Calm,-,N/A,,Scattered Clouds,0,2012-10-13 15:15:00
11:35 AM,79.3,65.8,63,30.23,10.0,SSE,3.5,-,N/A,,Clear,160,2012-10-13 16:35:00
11:55 AM,80.8,66.0,61,30.23,10.0,South,10.4,-,N/A,,Unknown,190,2012-10-13 16:55:00
12:35 PM,82.4,63.9,53,30.21,10.0,South,6.9,-,N/A,,Unknown,190,2012-10-13 17:35:00
12:55 PM,82.4,62.8,51,30.20,10.0,South,10.4,16.1,N/A,,Unknown,180,2012-10-13 17:55:00
1:15 PM,84.2,63.3,49,30.19,10.0,South,9.2,17.3,N/A,,Scattered Clouds,180,2012-10-13 18:15:00
1:35 PM,83.5,62.6,49,30.18,10.0,South,9.2,-,N/A,,Scattered Clouds,180,2012-10-13 18:35:00
1:55 PM,83.7,62.6,49,30.17,10.0,South,11.5,18.4,N/A,,Scattered Clouds,170,2012-10-13 18:55:00
2:15 PM,84.2,63.0,49,30.15,10.0,SSE,11.5,-,N/A,,Scattered Clouds,160,2012-10-13 19:15:00
2:35 PM,84.0,62.4,48,30.14,10.0,South,8.1,-,N/A,,Mostly Cloudy,180,2012-10-13 19:35:00
2:55 PM,84.6,62.4,47,30.14,10.0,South,10.4,19.6,N/A,,Mostly Cloudy,170,2012-10-13 19:55:00
3:15 PM,84.7,62.4,47,30.14,10.0,SSE,12.7,-,N/A,,Mostly Cloudy,160,2012-10-13 20:15:00
3:35 PM,83.1,61.9,49,30.13,10.0,SSW,9.2,-,N/A,,Mostly Cloudy,210,2012-10-13 20:35:00
3:55 PM,84.2,61.5,46,30.13,10.0,SSW,10.4,-,N/A,,Scattered Clouds,210,2012-10-13 20:55:00
4:15 PM,81.3,62.6,53,30.13,10.0,South,9.2,-,N/A,,Scattered Clouds,170,2012-10-13 21:15:00
4:35 PM,81.3,63.1,54,30.13,10.0,South,9.2,-,N/A,,Scattered Clouds,170,2012-10-13 21:35:00
4:55 PM,81.5,63.3,54,30.12,10.0,South,6.9,-,N/A,,Clear,190,2012-10-13 21:55:00
5:15 PM,80.8,63.1,55,30.12,10.0,South,10.4,-,N/A,,Clear,190,2012-10-13 22:15:00
5:35 PM,79.0,63.7,59,30.12,10.0,South,6.9,-,N/A,,Clear,190,2012-10-13 22:35:00
5:55 PM,78.8,64.2,61,30.11,10.0,South,6.9,-,N/A,,Clear,180,2012-10-13 22:55:00
6:15 PM,77.9,64.8,64,30.12,10.0,North,-9999.0,-,N/A,,Clear,0,2012-10-13 23:15:00
6:35 PM,76.3,65.7,70,30.12,10.0,SSE,4.6,-,N/A,,Clear,160,2012-10-13 23:35:00
6:55 PM,75.0,66.0,73,30.13,10.0,South,4.6,-,N/A,,Clear,170,2012-10-13 23:55:00
7:15 PM,74.3,66.7,77,30.13,10.0,SSE,4.6,-,N/A,,Clear,150,2012-10-14 00:15:00
7:35 PM,73.8,65.8,76,30.13,10.0,SSE,4.6,-,N/A,,Clear,150,2012-10-14 00:35:00
7:55 PM,73.6,65.7,76,30.13,10.0,SSE,5.8,-,N/A,,Clear,150,2012-10-14 00:55:00
8:15 PM,73.0,65.7,78,30.14,10.0,SE,3.5,-,N/A,,Unknown,140,2012-10-14 01:15:00
8:35 PM,72.5,65.7,79,30.14,10.0,SSE,4.6,-,N/A,,Unknown,150,2012-10-14 01:35:00
9:15 PM,72.1,66.4,82,30.15,10.0,SSE,5.8,-,N/A,,Unknown,150,2012-10-14 02:15:00
9:35 PM,72.1,70.7,95,30.15,10.0,SSE,4.6,-,N/A,,Clear,150,2012-10-14 02:35:00
9:55 PM,71.6,71.6,100,30.15,10.0,SSE,4.6,-,N/A,,Clear,150,2012-10-14 02:55:00
10:15 PM,71.8,71.8,100,30.15,10.0,SSE,5.8,-,N/A,,Clear,150,2012-10-14 03:15:00
10:35 PM,71.6,71.6,100,30.15,7.0,SSE,3.5,-,N/A,,Clear,150,2012-10-14 03:35:00
10:55 PM,71.4,71.4,100,30.15,7.0,SE,3.5,-,N/A,,Clear,140,2012-10-14 03:55:00
11:15 PM,70.7,70.7,100,30.14,7.0,Calm,Calm,-,N/A,,Clear,0,2012-10-14 04:15:00
11:35 PM,70.3,70.3,100,30.14,5.0,Calm,Calm,-,N/A,,Clear,0,2012-10-14 04:35:00